owner,sensor,date,latitude,longitude,vertical_datum,wind_speed,wind_to_direction,wind_speed_of_gust,qcFlag 
LUMCON,ioos:station:LUMCON:101:1,2006-01-01T02:00:00Z,29.2533,-90.6633,1.0,2.1,140.0,3.1,'11111222,11111222,11111222' 
LUMCON,ioos:station:LUMCON:101:1,2006-01-01T03:00:00Z,29.2533,-90.6633,1.0,3.1,110.0,4.6,'11111222,11111222,11111222' 
LUMCON,ioos:station:LUMCON:101:1,2006-01-01T04:00:00Z,29.2533,-90.6633,1.0,3.1,110.0,4.6,'11111222,11111222,11111222' 
LUMCON,ioos:station:LUMCON:101:1,2006-01-01T05:00:00Z,29.2533,-90.6633,1.0,2.6,100.0,3.6,'11111222,11111222,11111222' 
LUMCON,ioos:station:LUMCON:101:1,2006-01-01T06:00:00Z,29.2533,-90.6633,1.0,3.6,120.0,4.6,'11111222,11111222,11111222' 
LUMCON,ioos:station:LUMCON:101:1,2006-01-01T07:00:00Z,29.2533,-90.6633,1.0,1.5,110.0,2.6,'11111222,11111222,11111222' 
LUMCON,ioos:station:LUMCON:101:1,2006-01-01T08:00:00Z,29.2533,-90.6633,1.0,1.5,90.0,2.6,'11111222,11111222,11111222' 
LUMCON,ioos:station:LUMCON:101:1,2006-01-01T09:00:00Z,29.2533,-90.6633,1.0,1.0,80.0,2.1,'11111222,11111222,11111222' 
LUMCON,ioos:station:LUMCON:101:1,2006-01-01T10:00:00Z,29.2533,-90.6633,1.0,2.1,90.0,2.6,'11111222,11111222,11111222' 
LUMCON,ioos:station:LUMCON:101:1,2006-01-01T11:00:00Z,29.2533,-90.6633,1.0,1.5,130.0,2.1,'11111222,11111222,11111222' 
LUMCON,ioos:station:LUMCON:101:1,2006-01-01T12:00:00Z,29.2533,-90.6633,1.0,1.5,130.0,2.6,'11111222,11111222,11111222' 
LUMCON,ioos:station:LUMCON:101:1,2006-01-01T13:00:00Z,29.2533,-90.6633,1.0,3.1,180.0,4.6,'11111222,11111222,11111222' 
LUMCON,ioos:station:LUMCON:101:1,2006-01-01T14:00:00Z,29.2533,-90.6633,1.0,4.1,190.0,5.7,'11111222,11111222,11111222' 
LUMCON,ioos:station:LUMCON:101:1,2006-01-01T15:00:00Z,29.2533,-90.6633,1.0,4.1,160.0,5.7,'11111222,11111222,11111222' 
LUMCON,ioos:station:LUMCON:101:1,2006-01-01T16:00:00Z,29.2533,-90.6633,1.0,3.1,160.0,5.7,'11111222,11111222,11111222' 
LUMCON,ioos:station:LUMCON:101:1,2006-01-01T17:00:00Z,29.2533,-90.6633,1.0,4.1,160.0,5.7,'11111222,11111222,11111222' 
LUMCON,ioos:station:LUMCON:101:1,2006-01-01T18:00:00Z,29.2533,-90.6633,1.0,4.1,150.0,6.2,'11111222,11111222,11111222' 
LUMCON,ioos:station:LUMCON:101:1,2006-01-01T19:00:00Z,29.2533,-90.6633,1.0,4.6,160.0,6.7,'11111222,11111222,11111222' 
LUMCON,ioos:station:LUMCON:101:1,2006-01-01T20:00:00Z,29.2533,-90.6633,1.0,4.1,180.0,5.7,'11111222,11111222,11111222' 
LUMCON,ioos:station:LUMCON:101:1,2006-01-01T21:00:00Z,29.2533,-90.6633,1.0,5.1,180.0,6.7,'11111222,11111222,11111222' 
LUMCON,ioos:station:LUMCON:101:1,2006-01-01T22:00:00Z,29.2533,-90.6633,1.0,3.6,180.0,6.2,'11111222,11111222,11111222' 
LUMCON,ioos:station:LUMCON:101:1,2006-01-01T23:00:00Z,29.2533,-90.6633,1.0,3.6,180.0,4.6,'11111222,11111222,11111222' 
LUMCON,ioos:station:LUMCON:101:1,2006-01-02T00:00:00Z,29.2533,-90.6633,1.0,4.6,180.0,6.2,'11111222,11111222,11111222' 
LUMCON,ioos:station:LUMCON:101:1,2006-01-02T01:00:00Z,29.2533,-90.6633,1.0,5.1,180.0,7.2,'11111222,11111222,11111222' 
LUMCON,ioos:station:LUMCON:101:1,2006-01-02T02:00:00Z,29.2533,-90.6633,1.0,7.2,180.0,9.3,'11111222,11111222,11111222' 
LUMCON,ioos:station:LUMCON:101:1,2006-01-02T03:00:00Z,29.2533,-90.6633,1.0,5.1,190.0,6.7,'11111222,11111222,11111222' 
LUMCON,ioos:station:LUMCON:101:1,2006-01-02T04:00:00Z,29.2533,-90.6633,1.0,5.7,190.0,7.7,'11111222,11111222,11111222' 
LUMCON,ioos:station:LUMCON:101:1,2006-01-02T05:00:00Z,29.2533,-90.6633,1.0,6.2,180.0,9.3,'11111222,11111222,11111222' 
LUMCON,ioos:station:LUMCON:101:1,2006-01-02T06:00:00Z,29.2533,-90.6633,1.0,5.7,200.0,7.2,'11111222,11111222,11111222' 
LUMCON,ioos:station:LUMCON:101:1,2006-01-02T07:00:00Z,29.2533,-90.6633,1.0,6.7,210.0,8.2,'11111222,11111222,11111222' 
LUMCON,ioos:station:LUMCON:101:1,2006-01-02T08:00:00Z,29.2533,-90.6633,1.0,4.6,200.0,6.2,'11111222,11111222,11111222' 
LUMCON,ioos:station:LUMCON:101:1,2006-01-02T09:00:00Z,29.2533,-90.6633,1.0,5.7,210.0,7.2,'11111222,11111222,11111222' 
LUMCON,ioos:station:LUMCON:101:1,2006-01-02T10:00:00Z,29.2533,-90.6633,1.0,4.6,230.0,6.2,'11111222,11111222,11111222' 
LUMCON,ioos:station:LUMCON:101:1,2006-01-02T11:00:00Z,29.2533,-90.6633,1.0,5.7,220.0,8.8,'11111222,11111222,11111222' 
LUMCON,ioos:station:LUMCON:101:1,2006-01-02T12:00:00Z,29.2533,-90.6633,1.0,5.1,220.0,6.7,'11111222,11111222,11111222' 
LUMCON,ioos:station:LUMCON:101:1,2006-01-02T13:00:00Z,29.2533,-90.6633,1.0,5.1,220.0,7.2,'11111222,11111222,11111222' 
LUMCON,ioos:station:LUMCON:101:1,2006-01-02T14:00:00Z,29.2533,-90.6633,1.0,5.1,230.0,8.2,'11111222,11111222,11111222' 
LUMCON,ioos:station:LUMCON:101:1,2006-01-02T15:00:00Z,29.2533,-90.6633,1.0,4.6,240.0,7.7,'11111222,11111222,11111222' 
LUMCON,ioos:station:LUMCON:101:1,2006-01-02T16:00:00Z,29.2533,-90.6633,1.0,7.2,250.0,9.3,'11111222,11111222,11111222' 
LUMCON,ioos:station:LUMCON:101:1,2006-01-02T17:00:00Z,29.2533,-90.6633,1.0,7.2,270.0,9.3,'11111222,11111222,11111222' 
LUMCON,ioos:station:LUMCON:101:1,2006-01-02T18:00:00Z,29.2533,-90.6633,1.0,7.7,260.0,9.8,'11111222,11111222,11111222' 
LUMCON,ioos:station:LUMCON:101:1,2006-01-02T19:00:00Z,29.2533,-90.6633,1.0,8.8,260.0,9.3,'11111222,11111222,11111222' 
LUMCON,ioos:station:LUMCON:101:1,2006-01-02T20:00:00Z,29.2533,-90.6633,1.0,8.2,260.0,9.8,'11111222,11111222,11111222' 
LUMCON,ioos:station:LUMCON:101:1,2006-01-02T21:00:00Z,29.2533,-90.6633,1.0,6.2,270.0,9.3,'11111222,11111222,11111222' 
LUMCON,ioos:station:LUMCON:101:1,2006-01-02T22:00:00Z,29.2533,-90.6633,1.0,5.7,260.0,7.7,'11111222,11111222,11111222' 
LUMCON,ioos:station:LUMCON:101:1,2006-01-02T23:00:00Z,29.2533,-90.6633,1.0,4.6,260.0,7.2,'11111222,11111222,11111222' 
LUMCON,ioos:station:LUMCON:101:1,2006-01-03T00:00:00Z,29.2533,-90.6633,1.0,5.1,270.0,7.2,'11111222,11111222,11111222' 
LUMCON,ioos:station:LUMCON:101:1,2006-01-03T01:00:00Z,29.2533,-90.6633,1.0,5.1,260.0,7.2,'11111222,11111222,11111222' 
LUMCON,ioos:station:LUMCON:101:1,2006-01-03T02:00:00Z,29.2533,-90.6633,1.0,5.1,280.0,7.2,'11111222,11111222,11111222' 
LUMCON,ioos:station:LUMCON:101:1,2006-01-03T03:00:00Z,29.2533,-90.6633,1.0,4.6,280.0,6.2,'11111222,11111222,11111222' 
LUMCON,ioos:station:LUMCON:101:1,2006-01-03T04:00:00Z,29.2533,-90.6633,1.0,4.1,270.0,4.6,'11111222,11111222,11111222' 
LUMCON,ioos:station:LUMCON:101:1,2006-01-03T05:00:00Z,29.2533,-90.6633,1.0,3.6,280.0,4.1,'11111222,11111222,11111222' 
LUMCON,ioos:station:LUMCON:101:1,2006-01-03T06:00:00Z,29.2533,-90.6633,1.0,3.1,280.0,3.6,'11111222,11111222,11111222' 
LUMCON,ioos:station:LUMCON:101:1,2006-01-03T07:00:00Z,29.2533,-90.6633,1.0,3.1,280.0,4.1,'11111222,11111222,11111222' 
LUMCON,ioos:station:LUMCON:101:1,2006-01-03T08:00:00Z,29.2533,-90.6633,1.0,3.1,290.0,4.1,'11111222,11111222,11111222' 
LUMCON,ioos:station:LUMCON:101:1,2006-01-03T09:00:00Z,29.2533,-90.6633,1.0,2.6,310.0,3.6,'11111222,11111222,11111222' 
LUMCON,ioos:station:LUMCON:101:1,2006-01-03T10:00:00Z,29.2533,-90.6633,1.0,3.1,320.0,3.6,'11111222,11111222,11111222' 
LUMCON,ioos:station:LUMCON:101:1,2006-01-03T11:00:00Z,29.2533,-90.6633,1.0,3.1,340.0,3.6,'11111222,11111222,11111222' 
LUMCON,ioos:station:LUMCON:101:1,2006-01-03T12:00:00Z,29.2533,-90.6633,1.0,2.6,330.0,3.1,'11111222,11111222,11111222' 
LUMCON,ioos:station:LUMCON:101:1,2006-01-03T13:00:00Z,29.2533,-90.6633,1.0,1.5,320.0,2.1,'11111222,11111222,11111222' 
LUMCON,ioos:station:LUMCON:101:1,2006-01-03T14:00:00Z,29.2533,-90.6633,1.0,2.6,350.0,3.6,'11111222,11111222,11111222' 
LUMCON,ioos:station:LUMCON:101:1,2006-01-03T15:00:00Z,29.2533,-90.6633,1.0,2.1,0.0,3.1,'11111222,11111222,11111222' 
LUMCON,ioos:station:LUMCON:101:1,2006-01-03T16:00:00Z,29.2533,-90.6633,1.0,3.1,30.0,4.1,'11111222,11111222,11111222' 
LUMCON,ioos:station:LUMCON:101:1,2006-01-03T17:00:00Z,29.2533,-90.6633,1.0,3.1,60.0,4.1,'11111222,11111222,11111222' 
LUMCON,ioos:station:LUMCON:101:1,2006-01-03T18:00:00Z,29.2533,-90.6633,1.0,1.5,50.0,3.1,'11111222,11111222,11111222' 
LUMCON,ioos:station:LUMCON:101:1,2006-01-03T19:00:00Z,29.2533,-90.6633,1.0,1.5,350.0,3.1,'11111222,11111222,11111222' 
LUMCON,ioos:station:LUMCON:101:1,2006-01-03T20:00:00Z,29.2533,-90.6633,1.0,2.6,140.0,3.6,'11111222,11111222,11111222' 
LUMCON,ioos:station:LUMCON:101:1,2006-01-03T21:00:00Z,29.2533,-90.6633,1.0,2.6,180.0,4.1,'11111222,11111222,11111222' 
LUMCON,ioos:station:LUMCON:101:1,2006-01-03T23:00:00Z,29.2533,-90.6633,1.0,3.1,220.0,4.6,'11111222,11111222,11111222' 
LUMCON,ioos:station:LUMCON:101:1,2006-01-04T00:00:00Z,29.2533,-90.6633,1.0,1.5,210.0,2.6,'11111222,11111222,11111222' 
LUMCON,ioos:station:LUMCON:101:1,2006-01-04T01:00:00Z,29.2533,-90.6633,1.0,2.6,220.0,3.1,'11111222,11111222,11111222' 
LUMCON,ioos:station:LUMCON:101:1,2006-01-04T02:00:00Z,29.2533,-90.6633,1.0,2.6,230.0,3.1,'11111222,11111222,11111222' 
LUMCON,ioos:station:LUMCON:101:1,2006-01-04T03:00:00Z,29.2533,-90.6633,1.0,2.6,230.0,3.1,'11111222,11111222,11111222' 
LUMCON,ioos:station:LUMCON:101:1,2006-01-04T04:00:00Z,29.2533,-90.6633,1.0,1.5,220.0,2.1,'11111222,11111222,11111222' 
LUMCON,ioos:station:LUMCON:101:1,2006-01-04T05:00:00Z,29.2533,-90.6633,1.0,2.1,180.0,2.6,'11111222,11111222,11111222' 
LUMCON,ioos:station:LUMCON:101:1,2006-01-04T06:00:00Z,29.2533,-90.6633,1.0,2.6,200.0,3.6,'11111222,11111222,11111222' 
LUMCON,ioos:station:LUMCON:101:1,2006-01-04T07:00:00Z,29.2533,-90.6633,1.0,2.1,210.0,3.1,'11111222,11111222,11111222' 
LUMCON,ioos:station:LUMCON:101:1,2006-01-04T08:00:00Z,29.2533,-90.6633,1.0,2.1,260.0,2.6,'11111222,11111222,11111222' 
LUMCON,ioos:station:LUMCON:101:1,2006-01-04T09:00:00Z,29.2533,-90.6633,1.0,2.6,290.0,3.1,'11111222,11111222,11111222' 
LUMCON,ioos:station:LUMCON:101:1,2006-01-04T10:00:00Z,29.2533,-90.6633,1.0,1.0,320.0,1.5,'11111222,11111222,11111222' 
LUMCON,ioos:station:LUMCON:101:1,2006-01-04T11:00:00Z,29.2533,-90.6633,1.0,0.0,330.0,0.0,'11111222,11111222,11111222' 
LUMCON,ioos:station:LUMCON:101:1,2006-01-04T12:00:00Z,29.2533,-90.6633,1.0,0.0,80.0,0.0,'11111222,11111222,11111222' 
LUMCON,ioos:station:LUMCON:101:1,2006-01-04T13:00:00Z,29.2533,-90.6633,1.0,1.0,170.0,1.5,'11111222,11111222,11111222' 
LUMCON,ioos:station:LUMCON:101:1,2006-01-04T14:00:00Z,29.2533,-90.6633,1.0,0.0,80.0,0.0,'11111222,11111222,11111222' 
LUMCON,ioos:station:LUMCON:101:1,2006-01-04T15:00:00Z,29.2533,-90.6633,1.0,0.0,40.0,0.5,'11111222,11111222,11111222' 
LUMCON,ioos:station:LUMCON:101:1,2006-01-04T16:00:00Z,29.2533,-90.6633,1.0,0.0,20.0,1.0,'11111222,11111222,11111222' 
LUMCON,ioos:station:LUMCON:101:1,2006-01-04T17:00:00Z,29.2533,-90.6633,1.0,2.1,130.0,3.1,'11111222,11111222,11111222' 
LUMCON,ioos:station:LUMCON:101:1,2006-01-04T18:00:00Z,29.2533,-90.6633,1.0,3.1,260.0,5.1,'11111222,11111222,11111222' 
LUMCON,ioos:station:LUMCON:101:1,2006-01-04T19:00:00Z,29.2533,-90.6633,1.0,3.6,230.0,4.6,'11111222,11111222,11111222' 
LUMCON,ioos:station:LUMCON:101:1,2006-01-04T20:00:00Z,29.2533,-90.6633,1.0,4.1,260.0,6.2,'11111222,11111222,11111222' 
LUMCON,ioos:station:LUMCON:101:1,2006-01-04T21:00:00Z,29.2533,-90.6633,1.0,4.6,250.0,6.7,'11111222,11111222,11111222' 
LUMCON,ioos:station:LUMCON:101:1,2006-01-04T22:00:00Z,29.2533,-90.6633,1.0,3.6,230.0,5.1,'11111222,11111222,11111222' 
LUMCON,ioos:station:LUMCON:101:1,2006-01-04T23:00:00Z,29.2533,-90.6633,1.0,3.1,260.0,4.1,'11111222,11111222,11111222' 
LUMCON,ioos:station:LUMCON:101:1,2006-01-05T00:00:00Z,29.2533,-90.6633,1.0,2.6,260.0,3.1,'11111222,11111222,11111222' 
LUMCON,ioos:station:LUMCON:101:1,2006-01-05T01:00:00Z,29.2533,-90.6633,1.0,3.1,220.0,4.1,'11111222,11111222,11111222' 
LUMCON,ioos:station:LUMCON:101:1,2006-01-05T02:00:00Z,29.2533,-90.6633,1.0,2.6,250.0,3.6,'11111222,11111222,11111222' 
LUMCON,ioos:station:LUMCON:101:1,2006-01-05T03:00:00Z,29.2533,-90.6633,1.0,3.6,240.0,4.6,'11111222,11111222,11111222' 
LUMCON,ioos:station:LUMCON:101:1,2006-01-05T04:00:00Z,29.2533,-90.6633,1.0,5.1,250.0,6.7,'11111222,11111222,11111222' 
LUMCON,ioos:station:LUMCON:101:1,2006-01-05T05:00:00Z,29.2533,-90.6633,1.0,3.6,240.0,4.6,'11111222,11111222,11111222' 
LUMCON,ioos:station:LUMCON:101:1,2006-01-05T06:00:00Z,29.2533,-90.6633,1.0,4.1,270.0,6.2,'11111222,11111222,11111222' 
LUMCON,ioos:station:LUMCON:101:1,2006-01-05T07:00:00Z,29.2533,-90.6633,1.0,4.1,290.0,5.7,'11111222,11111222,11111222' 
LUMCON,ioos:station:LUMCON:101:1,2006-01-05T08:00:00Z,29.2533,-90.6633,1.0,4.6,280.0,7.2,'11111222,11111222,11111222' 
LUMCON,ioos:station:LUMCON:101:1,2006-01-05T09:00:00Z,29.2533,-90.6633,1.0,4.1,300.0,6.2,'11111222,11111222,11111222' 
LUMCON,ioos:station:LUMCON:101:1,2006-01-05T10:00:00Z,29.2533,-90.6633,1.0,3.6,320.0,5.7,'11111222,11111222,11111222' 
LUMCON,ioos:station:LUMCON:101:1,2006-01-05T11:00:00Z,29.2533,-90.6633,1.0,3.6,310.0,4.6,'11111222,11111222,11111222' 
LUMCON,ioos:station:LUMCON:101:1,2006-01-05T12:00:00Z,29.2533,-90.6633,1.0,3.6,320.0,4.1,'11111222,11111222,11111222' 
LUMCON,ioos:station:LUMCON:101:1,2006-01-05T13:00:00Z,29.2533,-90.6633,1.0,4.6,350.0,6.2,'11111222,11111222,11111222' 
LUMCON,ioos:station:LUMCON:101:1,2006-01-05T14:00:00Z,29.2533,-90.6633,1.0,6.2,340.0,8.2,'11111222,11111222,11111222' 
LUMCON,ioos:station:LUMCON:101:1,2006-01-05T15:00:00Z,29.2533,-90.6633,1.0,7.7,320.0,9.8,'11111222,11111222,11111222' 
LUMCON,ioos:station:LUMCON:101:1,2006-01-05T16:00:00Z,29.2533,-90.6633,1.0,6.7,360.0,8.8,'11111222,11144222,11111222' 
LUMCON,ioos:station:LUMCON:101:1,2006-01-05T17:00:00Z,29.2533,-90.6633,1.0,6.7,330.0,9.3,'11111222,11111222,11111222' 
LUMCON,ioos:station:LUMCON:101:1,2006-01-05T18:00:00Z,29.2533,-90.6633,1.0,6.2,330.0,8.8,'11111222,11111222,11111222' 
LUMCON,ioos:station:LUMCON:101:1,2006-01-05T19:00:00Z,29.2533,-90.6633,1.0,7.7,320.0,9.8,'11111222,11111222,11111222' 
LUMCON,ioos:station:LUMCON:101:1,2006-01-05T20:00:00Z,29.2533,-90.6633,1.0,9.3,320.0,9.8,'11111222,11111222,11111222' 
LUMCON,ioos:station:LUMCON:101:1,2006-01-05T21:00:00Z,29.2533,-90.6633,1.0,9.3,330.0,9.8,'11111222,11111222,11111222' 
LUMCON,ioos:station:LUMCON:101:1,2006-01-05T22:00:00Z,29.2533,-90.6633,1.0,7.7,330.0,9.8,'11111222,11111222,11111222' 
LUMCON,ioos:station:LUMCON:101:1,2006-01-05T23:00:00Z,29.2533,-90.6633,1.0,8.8,340.0,9.8,'11111222,11111222,11111222' 
LUMCON,ioos:station:LUMCON:101:1,2006-01-06T00:00:00Z,29.2533,-90.6633,1.0,3.6,320.0,4.6,'11111222,11111222,11111222' 
LUMCON,ioos:station:LUMCON:101:1,2006-01-06T01:00:00Z,29.2533,-90.6633,1.0,4.1,330.0,5.7,'11111222,11111222,11111222' 
LUMCON,ioos:station:LUMCON:101:1,2006-01-06T02:00:00Z,29.2533,-90.6633,1.0,3.6,280.0,4.6,'11111222,11111222,11111222' 
LUMCON,ioos:station:LUMCON:101:1,2006-01-06T03:00:00Z,29.2533,-90.6633,1.0,4.6,290.0,6.2,'11111222,11111222,11111222' 
LUMCON,ioos:station:LUMCON:101:1,2006-01-06T04:00:00Z,29.2533,-90.6633,1.0,5.7,310.0,7.2,'11111222,11111222,11111222' 
LUMCON,ioos:station:LUMCON:101:1,2006-01-06T05:00:00Z,29.2533,-90.6633,1.0,4.1,300.0,5.7,'11111222,11111222,11111222' 
LUMCON,ioos:station:LUMCON:101:1,2006-01-06T15:00:00Z,29.2533,-90.6633,1.0,5.7,330.0,8.2,'11111222,11111222,11111222' 
LUMCON,ioos:station:LUMCON:101:1,2006-01-06T16:00:00Z,29.2533,-90.6633,1.0,7.2,350.0,9.3,'11111222,11111222,11111222' 
LUMCON,ioos:station:LUMCON:101:1,2006-01-06T17:00:00Z,29.2533,-90.6633,1.0,8.2,340.0,9.8,'11111222,11111222,11111222' 
LUMCON,ioos:station:LUMCON:101:1,2006-01-09T16:00:00Z,29.2533,-90.6633,1.0,2.1,90.0,3.1,'11111222,11111222,11111222' 
LUMCON,ioos:station:LUMCON:101:1,2006-01-09T17:00:00Z,29.2533,-90.6633,1.0,2.1,110.0,2.6,'11111222,11111222,11111222' 
LUMCON,ioos:station:LUMCON:101:1,2006-01-09T18:00:00Z,29.2533,-90.6633,1.0,3.6,110.0,4.6,'11111222,11111222,11111222' 
LUMCON,ioos:station:LUMCON:101:1,2006-01-09T19:00:00Z,29.2533,-90.6633,1.0,4.1,110.0,5.7,'11111222,11111222,11111222' 
LUMCON,ioos:station:LUMCON:101:1,2006-01-09T20:00:00Z,29.2533,-90.6633,1.0,3.1,110.0,4.6,'11111222,11111222,11111222' 
LUMCON,ioos:station:LUMCON:101:1,2006-01-09T21:00:00Z,29.2533,-90.6633,1.0,3.6,120.0,4.1,'11111222,11111222,11111222' 
LUMCON,ioos:station:LUMCON:101:1,2006-01-09T22:00:00Z,29.2533,-90.6633,1.0,3.6,100.0,5.1,'11111222,11111222,11111222' 
LUMCON,ioos:station:LUMCON:101:1,2006-01-09T23:00:00Z,29.2533,-90.6633,1.0,3.6,110.0,5.1,'11111222,11111222,11111222' 
LUMCON,ioos:station:LUMCON:101:1,2006-01-10T00:00:00Z,29.2533,-90.6633,1.0,2.6,100.0,4.1,'11111222,11111222,11111222' 
LUMCON,ioos:station:LUMCON:101:1,2006-01-10T01:00:00Z,29.2533,-90.6633,1.0,3.6,110.0,4.6,'11111222,11111222,11111222' 
LUMCON,ioos:station:LUMCON:101:1,2006-01-10T02:00:00Z,29.2533,-90.6633,1.0,2.6,100.0,3.6,'11111222,11111222,11111222' 
LUMCON,ioos:station:LUMCON:101:1,2006-01-10T03:00:00Z,29.2533,-90.6633,1.0,4.1,140.0,6.2,'11111222,11111222,11111222' 
LUMCON,ioos:station:LUMCON:101:1,2006-01-10T04:00:00Z,29.2533,-90.6633,1.0,4.1,110.0,5.7,'11111222,11111222,11111222' 
LUMCON,ioos:station:LUMCON:101:1,2006-01-10T05:00:00Z,29.2533,-90.6633,1.0,2.1,110.0,3.1,'11111222,11111222,11111222' 
LUMCON,ioos:station:LUMCON:101:1,2006-01-10T06:00:00Z,29.2533,-90.6633,1.0,2.6,140.0,3.6,'11111222,11111222,11111222' 
LUMCON,ioos:station:LUMCON:101:1,2006-01-10T07:00:00Z,29.2533,-90.6633,1.0,4.6,120.0,6.7,'11111222,11111222,11111222' 
LUMCON,ioos:station:LUMCON:101:1,2006-01-10T08:00:00Z,29.2533,-90.6633,1.0,2.1,110.0,3.6,'11111222,11111222,11111222' 
LUMCON,ioos:station:LUMCON:101:1,2006-01-10T09:00:00Z,29.2533,-90.6633,1.0,1.5,70.0,2.1,'11111222,11111222,11111222' 
LUMCON,ioos:station:LUMCON:101:1,2006-01-10T10:00:00Z,29.2533,-90.6633,1.0,1.5,350.0,2.6,'11111222,11111222,11111222' 
LUMCON,ioos:station:LUMCON:101:1,2006-01-10T11:00:00Z,29.2533,-90.6633,1.0,3.6,330.0,4.1,'11111222,11111222,11111222' 
LUMCON,ioos:station:LUMCON:101:1,2006-01-10T12:00:00Z,29.2533,-90.6633,1.0,2.6,10.0,4.6,'11111222,11111222,11111222' 
LUMCON,ioos:station:LUMCON:101:1,2006-01-10T13:00:00Z,29.2533,-90.6633,1.0,2.6,0.0,3.1,'11111222,11111222,11111222' 
LUMCON,ioos:station:LUMCON:101:1,2006-01-10T14:00:00Z,29.2533,-90.6633,1.0,3.1,20.0,4.1,'11111222,11111222,11111222' 
LUMCON,ioos:station:LUMCON:101:1,2006-01-10T15:00:00Z,29.2533,-90.6633,1.0,2.6,50.0,3.6,'11111222,11111222,11111222' 
LUMCON,ioos:station:LUMCON:101:1,2006-01-10T16:00:00Z,29.2533,-90.6633,1.0,1.5,60.0,2.1,'11111222,11111222,11111222' 
LUMCON,ioos:station:LUMCON:101:1,2006-01-10T17:00:00Z,29.2533,-90.6633,1.0,3.1,110.0,4.1,'11111222,11111222,11111222' 
LUMCON,ioos:station:LUMCON:101:1,2006-01-10T18:00:00Z,29.2533,-90.6633,1.0,1.0,0.0,2.1,'11111222,11111222,11111222' 
LUMCON,ioos:station:LUMCON:101:1,2006-01-10T19:00:00Z,29.2533,-90.6633,1.0,6.2,140.0,8.2,'11111222,11111222,11111222' 
LUMCON,ioos:station:LUMCON:101:1,2006-01-10T20:00:00Z,29.2533,-90.6633,1.0,4.6,130.0,6.2,'11111222,11111222,11111222' 
LUMCON,ioos:station:LUMCON:101:1,2006-01-10T21:00:00Z,29.2533,-90.6633,1.0,5.7,130.0,7.2,'11111222,11111222,11111222' 
LUMCON,ioos:station:LUMCON:101:1,2006-01-10T22:00:00Z,29.2533,-90.6633,1.0,1.0,60.0,2.1,'11111222,11111222,11111222' 
LUMCON,ioos:station:LUMCON:101:1,2006-01-10T23:00:00Z,29.2533,-90.6633,1.0,1.5,100.0,3.1,'11111222,11111222,11111222' 
LUMCON,ioos:station:LUMCON:101:1,2006-01-11T00:00:00Z,29.2533,-90.6633,1.0,1.0,30.0,1.5,'11111222,11111222,11111222' 
LUMCON,ioos:station:LUMCON:101:1,2006-01-11T01:00:00Z,29.2533,-90.6633,1.0,1.5,310.0,2.1,'11111222,11111222,11111222' 
LUMCON,ioos:station:LUMCON:101:1,2006-01-11T02:00:00Z,29.2533,-90.6633,1.0,1.5,340.0,1.5,'11111222,11111222,11111222' 
LUMCON,ioos:station:LUMCON:101:1,2006-01-11T03:00:00Z,29.2533,-90.6633,1.0,1.0,340.0,1.5,'11111222,11111222,11111222' 
LUMCON,ioos:station:LUMCON:101:1,2006-01-11T04:00:00Z,29.2533,-90.6633,1.0,3.1,330.0,4.1,'11111222,11111222,11111222' 
LUMCON,ioos:station:LUMCON:101:1,2006-01-11T05:00:00Z,29.2533,-90.6633,1.0,3.6,350.0,5.1,'11111222,11111222,11111222' 
LUMCON,ioos:station:LUMCON:101:1,2006-01-11T06:00:00Z,29.2533,-90.6633,1.0,4.1,0.0,5.7,'11111222,11111222,11111222' 
LUMCON,ioos:station:LUMCON:101:1,2006-01-11T07:00:00Z,29.2533,-90.6633,1.0,4.6,0.0,5.7,'11111222,11111222,11111222' 
LUMCON,ioos:station:LUMCON:101:1,2006-01-11T08:00:00Z,29.2533,-90.6633,1.0,4.6,350.0,5.7,'11111222,11111222,11111222' 
LUMCON,ioos:station:LUMCON:101:1,2006-01-11T09:00:00Z,29.2533,-90.6633,1.0,2.6,340.0,3.6,'11111222,11111222,11111222' 
LUMCON,ioos:station:LUMCON:101:1,2006-01-11T10:00:00Z,29.2533,-90.6633,1.0,3.1,340.0,4.1,'11111222,11111222,11111222' 
LUMCON,ioos:station:LUMCON:101:1,2006-01-11T11:00:00Z,29.2533,-90.6633,1.0,3.1,330.0,4.6,'11111222,11111222,11111222' 
LUMCON,ioos:station:LUMCON:101:1,2006-01-11T12:00:00Z,29.2533,-90.6633,1.0,2.6,340.0,3.1,'11111222,11111222,11111222' 
LUMCON,ioos:station:LUMCON:101:1,2006-01-11T13:00:00Z,29.2533,-90.6633,1.0,3.6,320.0,4.1,'11111222,11111222,11111222' 
LUMCON,ioos:station:LUMCON:101:1,2006-01-11T14:00:00Z,29.2533,-90.6633,1.0,3.6,340.0,4.6,'11111222,11111222,11111222' 
LUMCON,ioos:station:LUMCON:101:1,2006-01-11T15:00:00Z,29.2533,-90.6633,1.0,3.1,10.0,4.1,'11111222,11111222,11111222' 
LUMCON,ioos:station:LUMCON:101:1,2006-01-11T16:00:00Z,29.2533,-90.6633,1.0,2.1,40.0,3.1,'11111222,11111222,11111222' 
LUMCON,ioos:station:LUMCON:101:1,2006-01-11T17:00:00Z,29.2533,-90.6633,1.0,2.1,0.0,3.1,'11111222,11111222,11111222' 
LUMCON,ioos:station:LUMCON:101:1,2006-01-11T18:00:00Z,29.2533,-90.6633,1.0,1.5,130.0,3.1,'11111222,11111222,11111222' 
LUMCON,ioos:station:LUMCON:101:1,2006-01-11T19:00:00Z,29.2533,-90.6633,1.0,2.6,150.0,3.6,'11111222,11111222,11111222' 
LUMCON,ioos:station:LUMCON:101:1,2006-01-11T20:00:00Z,29.2533,-90.6633,1.0,3.1,140.0,4.1,'11111222,11111222,11111222' 
LUMCON,ioos:station:LUMCON:101:1,2006-01-11T21:00:00Z,29.2533,-90.6633,1.0,3.6,150.0,4.6,'11111222,11111222,11111222' 
LUMCON,ioos:station:LUMCON:101:1,2006-01-11T22:00:00Z,29.2533,-90.6633,1.0,2.6,190.0,3.6,'11111222,11111222,11111222' 
LUMCON,ioos:station:LUMCON:101:1,2006-01-11T23:00:00Z,29.2533,-90.6633,1.0,2.6,190.0,4.1,'11111222,11111222,11111222' 
LUMCON,ioos:station:LUMCON:101:1,2006-01-12T00:00:00Z,29.2533,-90.6633,1.0,2.6,170.0,3.6,'11111222,11111222,11111222' 
LUMCON,ioos:station:LUMCON:101:1,2006-01-12T01:00:00Z,29.2533,-90.6633,1.0,2.1,180.0,2.6,'11111222,11111222,11111222' 
LUMCON,ioos:station:LUMCON:101:1,2006-01-12T02:00:00Z,29.2533,-90.6633,1.0,2.6,210.0,3.1,'11111222,11111222,11111222' 
LUMCON,ioos:station:LUMCON:101:1,2006-01-12T03:00:00Z,29.2533,-90.6633,1.0,2.1,230.0,2.6,'11111222,11111222,11111222' 
LUMCON,ioos:station:LUMCON:101:1,2006-01-12T04:00:00Z,29.2533,-90.6633,1.0,0.5,210.0,1.0,'11111222,11111222,11111222' 
LUMCON,ioos:station:LUMCON:101:1,2006-01-12T05:00:00Z,29.2533,-90.6633,1.0,0.5,190.0,1.0,'11111222,11111222,11111222' 
LUMCON,ioos:station:LUMCON:101:1,2006-01-12T06:00:00Z,29.2533,-90.6633,1.0,0.0,180.0,0.5,'11111222,11111222,11111222' 
LUMCON,ioos:station:LUMCON:101:1,2006-01-12T07:00:00Z,29.2533,-90.6633,1.0,0.0,210.0,0.0,'11111222,11111222,11111222' 
LUMCON,ioos:station:LUMCON:101:1,2006-01-12T08:00:00Z,29.2533,-90.6633,1.0,2.1,180.0,2.6,'11111222,11111222,11111222' 
LUMCON,ioos:station:LUMCON:101:1,2006-01-12T09:00:00Z,29.2533,-90.6633,1.0,1.5,160.0,2.1,'11111222,11111222,11111222' 
LUMCON,ioos:station:LUMCON:101:1,2006-01-12T10:00:00Z,29.2533,-90.6633,1.0,1.5,180.0,2.1,'11111222,11111222,11111222' 
LUMCON,ioos:station:LUMCON:101:1,2006-01-12T11:00:00Z,29.2533,-90.6633,1.0,1.5,130.0,2.1,'11111222,11111222,11111222' 
LUMCON,ioos:station:LUMCON:101:1,2006-01-12T12:00:00Z,29.2533,-90.6633,1.0,0.5,120.0,1.0,'11111222,11111222,11111222' 
LUMCON,ioos:station:LUMCON:101:1,2006-01-12T13:00:00Z,29.2533,-90.6633,1.0,1.0,90.0,1.5,'11111222,11111222,11111222' 
LUMCON,ioos:station:LUMCON:101:1,2006-01-12T14:00:00Z,29.2533,-90.6633,1.0,2.1,110.0,3.1,'11111222,11111222,11111222' 
LUMCON,ioos:station:LUMCON:101:1,2006-01-12T15:00:00Z,29.2533,-90.6633,1.0,2.1,100.0,3.1,'11111222,11111222,11111222' 
LUMCON,ioos:station:LUMCON:101:1,2006-01-12T16:00:00Z,29.2533,-90.6633,1.0,3.1,100.0,4.6,'11111222,11111222,11111222' 
LUMCON,ioos:station:LUMCON:101:1,2006-01-12T17:00:00Z,29.2533,-90.6633,1.0,4.1,110.0,5.7,'11111222,11111222,11111222' 
LUMCON,ioos:station:LUMCON:101:1,2006-01-12T18:00:00Z,29.2533,-90.6633,1.0,3.6,110.0,5.1,'11111222,11111222,11111222' 